Location: GMARS
(34.2910°N, 116.3838°W)
Time: 15:52:12
(UTC-07:00)

Daily predictions for brighter satellites

Satellite Brightness Start Highest point End
(mag) Time Altitude Azimuth Time Altitude Azimuth Time Altitude Azimuth
SKYMED 2 3.9 18:54:31 10° N 18:58:51 75° WNW 19:03:09 10° SSW
MONITOR-E 4.2 18:59:08 10° S 19:02:12 83° W 19:05:17 10° NNW
Cosmos 2058 Rocket 3.3 18:58:05 10° SSE 19:02:13 44° E 19:06:23 10° NNE
Cosmos 1953 Rocket 3.8 18:58:28 10° N 19:02:39 47° E 19:06:48 10° SSE
Thor Agena Rocket 3.7 19:02:20 10° NNE 19:07:28 55° E 19:12:30 10° S
Cosmos 2184 Rocket 4.5 19:03:51 10° SSE 19:09:33 38° E 19:15:19 10° NNE
FENGYUN 3A 3.8 19:04:36 10° SSE 19:09:46 53° ENE 19:14:59 10° N
Cosmos 1656 Rocket 4.3 19:05:25 10° N 19:10:36 36° ENE 19:15:40 10° SE
NOAA 12 4.1 19:06:33 10° SSE 19:11:43 67° ENE 19:16:56 10° N
METEOR-M 4.3 19:08:07 10° S 19:13:28 79° WSW 19:18:50 10° NNW
EXPRESS MD2 4.5 19:12:14 10° WNW 19:14:42 33° SW 19:18:40 10° SSE
ISS -2.7 19:14:27 10° S 19:17:14 26° SE 19:19:45 12° ENE
SPOT 3 Rocket 3.9 19:13:09 10° S 19:18:16 71° WSW 19:23:26 10° NNW
Cosmos 482 Debris 3.6 19:14:58 10° NW 19:18:57 71° NE 19:21:12 12° SE
Cosmos 1766 4.0 19:16:02 10° SSE 19:19:29 30° E 19:22:56 10° NNE
Cosmos 1825 Rocket 4.0 19:15:54 10° NNW 19:20:18 69° W 19:24:43 10° S
Cosmos 304 Rocket 3.7 19:15:34 10° S 19:20:19 77° ESE 19:25:08 10° NNE
Meteor 2-13 Rocket 4.4 19:15:26 10° S 19:21:31 77° E 19:27:34 10° N
Cosmos 1544 4.1 19:18:47 10° SSE 19:21:45 25° E 19:24:44 10° NE
Cosmos 1707 2.7 19:17:52 10° N 19:21:48 70° E 19:25:41 10° SSE
Meteor 1-22 Rocket 4.5 19:16:38 10° SSE 19:22:04 45° E 19:27:19 10° NNE
OAO 3 Copernicus 4.3 19:17:41 10° W 19:22:46 85° N 19:27:10 14° E
Cosmos 1898 Rocket 4.0 19:18:58 10° NNW 19:24:05 65° WSW 19:29:10 10° S
COSMOS 2406 3.3 19:18:35 10° S 19:24:07 56° ESE 19:29:43 10° NNE
Meteor 2-5 Rocket 3.7 19:20:29 10° N 19:26:17 66° E 19:31:55 10° SSE
Cosmos 990 Rocket 3.9 19:21:36 10° NNW 19:26:46 81° ENE 19:31:53 10° SSE
Cosmos 2369 Rocket 3.9 19:21:55 10° NW 19:26:58 35° WSW 19:31:59 10° SSW
Cosmos 1378 3.0 19:25:02 10° N 19:28:49 78° E 19:32:34 10° S
USA 234 3.7 19:23:03 10° SSE 19:29:32 66° SW 19:36:03 10° NW
SL-08 ROCKET BODY 4.4 19:25:23 10° S 19:31:14 90° E 19:37:12 10° N
FengYun 1-2 T 4.3 19:30:45 10° SSE 19:36:14 58° ENE 19:41:41 10° N
ALOS 2.6 19:34:29 10° S 19:39:07 70° W 19:43:47 10° NNW
Envisat 4.3 19:38:12 18° E 19:39:40 21° ENE 19:43:21 10° NNE
Geosat 3.9 19:34:53 10° SSE 19:39:52 72° ENE 19:44:52 10° NNW
BREEZE M DEB (TANK) 4.1 19:34:00 10° NW 19:40:05 31° NNE 19:41:48 20° ENE
FREGAT/IRIS 2.6 19:42:17 10° S 19:45:18 84° W 19:48:20 10° NNW
USA 81 4.4 19:45:24 10° N 19:50:39 70° W 19:55:53 10° S
Cosmos 1805 3.5 19:49:01 10° SSE 19:52:44 45° E 19:56:27 10° NNE
SL-27 R/B 2.8 19:54:19 10° S 19:57:42 42° ESE 19:57:54 42° E
CZ-2D R/B 3.5 19:58:41 38° ESE 19:59:28 45° ENE 20:03:07 10° N
Cosmos 1900 4.3 19:57:54 10° SSW 20:02:54 67° ESE 20:08:00 10° NNE
ATLAS 2AS CENTAUR R/B 4.4 19:59:29 10° N 20:04:42 18° NE 20:07:05 16° ENE
HJ-1C 3.5 20:02:59 17° S 20:05:27 75° W 20:08:48 10° NNW
Resurs 1-3 4.0 20:05:33 39° E 20:06:01 41° ENE 20:10:08 10° N
Centaur AC-112 4.5 20:04:27 10° SW 20:07:23 14° S 20:08:03 13° S
Milstar 3 Cent rocket 2.6 20:05:10 10° WSW 20:10:03 36° S 20:11:02 32° SE
Cosmos 540 Rocket 3.9 20:08:18 10° SSW 20:13:19 61° WNW 20:18:23 10° N
Cosmos 2154 Rocket 3.9 20:08:32 10° S 20:14:41 71° E 20:20:54 10° N
NOSS 3-1 (A) 4.1 20:07:08 10° NNW 20:15:01 82° ENE 20:20:54 23° SE
SJ-6B 4.0 20:18:15 10° S 20:22:05 43° W 20:25:52 10° NNW
NOSS 3-1 (C) 4.4 20:15:42 10° NW 20:23:31 69° WSW 20:31:09 14° SSE
Yuri Rocket 3.7 20:19:37 10° WSW 20:23:42 37° S 20:23:42 37° S
Cosmos 1953 4.1 20:28:52 22° NNE 20:28:52 22° NNE 20:30:22 10° NNE
Cosmos 2341 Rocket 3.9 20:20:54 10° S 20:26:58 62° E 20:33:05 10° NNE
Meteor 1-24 Rocket 4.4 20:21:34 10° NNW 20:27:21 57° W 20:32:55 10° S
Resurs 01 Rocket 1.5 20:29:29 70° SSE 20:29:59 87° ENE 20:34:25 10° NNW
Cosmos 1066 4.5 20:26:05 10° N 20:31:32 74° E 20:32:44 54° SSE
Cosmos 1812 Rocket 4.3 20:29:16 10° SSW 20:33:36 53° W 20:37:58 10° N
GP-B 3.2 20:32:56 10° N 20:37:21 71° W 20:38:34 46° SSW
BREEZE-M DEB 4.0 20:37:28 10° WNW 20:42:00 34° WSW 20:42:00 34° WSW
Spot 2 Rocket 3.5 20:45:17 68° SSW 20:45:53 79° WSW 20:50:55 10° NNW
Nadezhda 3 Rocket 4.0 20:43:36 10° N 20:49:53 77° W 20:52:40 35° S
ISS -1.0 20:50:58 10° W 20:52:28 19° WNW 20:52:28 19° WNW
Cosmos 2285 Rocket 3.8 20:48:59 10° SSW 20:55:23 81° ESE 21:01:51 10° NNE
ATLAS CENTAUR R/B 3.5 20:49:39 10° NW 20:58:18 40° WSW 20:59:18 35° SW
Envisat 4.2 21:18:25 38° W 21:18:25 38° W 21:23:06 10° NNW
ATLAS 2AS CENTAUR R/B 3.7 21:49:11 10° NNW 21:54:31 46° NNW 21:54:31 46° NNW
